Wind_Speed
10 11 12 13 13 14 14 13 14 13 15 16 15 13 11 8 6 3 2 2 2 2 3 4 4 5 5 4 4 5 6 5 7 11 11 12 13 13 12 6 4 8 3 13
6 6 8 9 10 11 12 12 13 11 14 13 14 13 11 9 8 6 4 5 6 6 4 3 3 4 5 6 7 4 4 4 4 5 7 9 12 12 16 18 15 16 5 9
6 5 5 6 8 8 11 12 11 11 13 14 14 13 11 9 8 9 9 9 9 7 8 8 6 6 6 7 8 9 10 12 14 11 10 14 16 17 15 18 14 19 33 35
10 10 10 8 7 7 9 9 9 10 11 13 13 13 14 12 11 10 8 10 10 10 9 10 12 12 13 13 13 13 12 17 19 20 20 23 26 28 28 32 34 30 39 34
15 15 15 15 14 13 12 12 12 11 12 11 12 13 15 15 15 15 15 13 14 14 14 14 18 16 15 15 15 15 18 18 19 26 26 27 28 31 33 35 38 44 42 43
22 20 19 19 19 18 18 18 17 17 16 15 15 14 15 16 17 18 16 14 15 15 13 18 19 21 21 22 22 21 21 21 17 16 19 16 23 33 29 29 30 31 34 27
26 25 24 22 21 21 22 21 20 19 20 20 19 19 19 18 20 22 22 22 21 21 19 19 21 24 25 26 27 27 28 27 21 19 22 9 22 22 21 24 24 25 27 24
27 27 26 25 24 22 21 23 24 24 24 22 24 26 24 24 24 24 24 24 23 23 23 23 20 21 25 29 31 33 32 30 13 8 13 29 32 23 29 34 36 29 31 22
27 27 27 26 26 27 27 27 25 25 26 30 30 31 33 28 25 24 24 23 23 22 23 22 14 13 17 10 8 14 23 29 24 14 10 8 13 14 23 24 38 32 34 27
31 31 31 32 33 33 32 31 31 33 35 34 32 30 30 30 28 27 26 26 24 23 24 25 22 21 21 17 21 20 22 26 34 29 19 25 23 27 30 19 32 20 16 19
39 41 41 40 38 37 37 37 37 36 38 35 33 32 31 32 32 31 29 26 26 26 25 24 23 23 26 28 31 27 29 23 22 20 15 19 20 18 21 23 28 25 28 30
35 35 36 36 35 33 35 33 35 35 35 32 31 30 32 34 30 32 35 33 23 18 19 23 18 23 23 24 25 25 34 37 30 29 31 30 30 32 33 37 35 42 40 35
30 29 26 24 27 28 28 28 28 31 36 37 35 30 33 35 29 31 36 35 30 35 35 40 39 36 30 32 34 34 36 35 42 39 47 37 34 38 44 48 46 42 43 44
29 29 29 29 29 29 28 29 30 29 31 38 39 32 32 31 18 19 23 24 26 31 30 35 44 45 36 40 46 52 39 36 41 49 49 49 53 53 49 44 46 50 48 47
27 27 28 30 31 31 30 30 29 30 28 36 44 38 33 35 35 32 32 31 30 31 35 42 46 47 43 50 50 61 51 51 46 51 45 45 47 40 40 42 43 45 47 49
31 31 30 30 30 30 29 30 31 30 31 37 41 38 34 38 39 33 31 33 35 39 43 45 47 47 42 41 48 52 43 39 38 41 41 38 43 43 45 46 50 51 54 52
31 32 32 32 32 32 29 30 31 29 23 25 27 22 12 5 10 9 14 21 26 27 31 37 39 40 39 44 49 47 47 49 49 45 43 43 42 46 44 44 44 42 41 38
23 24 26 26 27 27 23 24 26 26 24 24 17 22 24 25 27 24 17 18 20 27 31 35 34 35 35 39 42 42 42 39 38 40 41 43 47 52 54 53 46 34 31 25
19 19 19 20 20 18 16 15 18 18 20 17 19 25 20 12 10 17 29 29 28 27 32 35 30 27 18 22 30 33 36 35 40 37 37 36 32 23 18 17 15 11 10 11
18 17 16 13 9 11 13 14 13 15 16 22 26 25 27 23 21 16 15 8 10 14 16 16 19 26 10 8 8 16 14 7 4 10 11 18 14 20 22 21 22 23 22 21
17 17 13 12 13 12 8 6 6 7 4 6 4 2 5 9 13 15 11 10 10 12 11 10 13 14 5 11 25 30 24 22 29 30 32 33 27 23 23 21 20 22 24 26
14 15 16 13 9 6 5 5 5 7 5 5 1 1 6 10 13 10 5 9 7 6 14 8 1 12 29 22 23 28 27 25 30 32 29 25 26 28 27 27 27 27 28 30
15 15 9 5 4 5 4 5 5 3 6 8 10 15 18 15 8 8 7 7 10 17 13 12 16 12 19 15 16 20 21 23 26 26 26 29 32 33 31 31 32 33 34 35
14 11 6 5 4 4 6 6 5 11 15 16 17 19 17 17 13 11 9 15 13 10 15 22 13 9 13 18 22 25 28 27 28 32 34 36 37 34 34 34 35 36 38 38
12 6 4 7 6 5 10 10 16 15 16 18 17 16 16 17 13 9 9 8 9 11 20 22 15 22 26 29 28 29 32 35 36 36 36 37 37 37 37 37 38 39 39 39
10 11 9 6 11 13 15 18 19 19 18 17 16 15 11 12 9 9 10 13 20 26 21 25 28 31 36 38 39 38 40 40 39 38 37 37 37 38 40 40 39 38 37 36
10 11 13 13 14 13 12 13 13 15 17 16 14 8 9 9 9 14 13 20 29 26 34 32 33 36 38 41 42 42 42 41 40 40 40 41 41 42 40 39 34 30 31 32
Wind_Direction
49 38 34 37 44 41 45 44 47 53 51 46 40 41 40 36 35 28 346 293 303 265 270 272 263 259 269 288 293 278 266 275 267 269 270 261 255 248 231 225 242 228 248 275
19 29 32 29 30 32 38 43 35 43 37 30 33 32 30 20 3 341 323 316 312 306 284 270 261 274 269 270 270 262 273 256 283 281 275 262 254 259 249 244 251 248 215 259
321 330 349 2 9 18 22 20 22 20 18 13 5 4 358 354 346 333 321 308 297 284 278 268 263 269 292 278 279 270 265 254 241 257 270 277 269 269 257 238 231 244 245 269
292 303 308 315 325 325 337 354 352 353 345 347 347 344 337 332 325 312 303 301 300 293 284 286 274 275 275 277 268 262 265 269 271 272 273 278 276 273 267 259 260 249 275 272
289 292 296 302 308 311 315 324 328 323 322 330 331 327 320 315 308 302 300 293 287 284 280 279 278 279 282 283 276 270 272 272 278 280 279 279 277 276 266 265 263 262 269 274
287 289 291 295 298 299 301 305 308 312 312 314 314 310 308 302 297 295 295 289 286 282 279 274 276 277 276 275 276 274 271 273 282 282 286 285 281 281 278 275 272 268 258 292
285 285 285 286 289 293 296 298 301 302 300 305 304 302 298 293 286 282 286 286 284 285 284 278 276 275 274 272 269 269 267 269 267 270 287 256 276 273 272 270 273 265 277 283
279 281 282 281 280 280 284 290 295 294 293 298 301 300 293 288 283 277 276 276 279 279 281 285 286 280 276 270 265 260 258 255 252 255 247 272 276 260 274 280 280 281 279 275
273 272 274 276 280 283 285 286 285 285 286 287 288 284 287 277 273 272 272 273 276 276 274 270 257 257 270 261 251 243 246 244 230 232 249 252 278 270 270 282 279 292 279 279
269 270 274 277 279 279 279 279 278 278 277 275 275 270 270 270 273 272 273 272 270 270 267 261 255 259 250 254 257 254 245 237 232 235 251 271 272 268 274 267 286 292 279 271
270 270 270 272 273 272 272 271 271 272 270 270 272 270 270 269 270 272 271 271 269 266 256 255 260 255 256 254 252 250 254 250 235 229 238 271 289 272 258 294 300 291 292 288
271 272 270 270 269 268 269 266 267 269 270 268 267 268 270 269 267 266 265 264 252 250 253 256 255 250 252 261 262 257 252 252 258 250 264 273 277 288 290 294 286 287 291 284
270 268 267 271 276 275 279 274 268 271 274 276 275 270 260 261 264 265 265 268 269 264 265 261 261 262 264 260 267 271 264 263 262 267 273 274 275 274 281 288 286 283 285 285
267 268 270 271 272 272 273 275 278 281 283 284 278 271 254 263 270 264 258 265 271 266 264 262 259 259 265 265 270 273 274 272 271 269 271 275 275 280 286 283 275 275 277 281
268 267 267 268 269 270 269 270 271 275 274 276 283 275 268 275 278 278 276 275 269 265 263 261 263 265 261 271 272 271 279 284 273 275 296 287 289 287 279 272 271 271 272 274
274 275 274 273 273 275 276 277 271 266 267 273 279 287 287 283 282 276 267 264 263 263 266 265 266 268 267 267 269 283 286 290 292 293 295 285 286 287 282 268 269 270 270 265
278 278 278 278 277 274 271 270 275 274 272 269 279 287 293 210 198 213 263 269 274 272 269 266 269 271 269 267 273 287 288 292 290 291 291 292 289 280 281 271 271 273 271 263
285 286 285 283 282 281 278 272 269 265 259 251 261 263 272 276 282 297 288 268 269 270 271 272 276 283 281 276 284 283 284 288 289 288 285 279 273 271 269 273 272 260 250 245
294 297 295 289 286 284 279 267 263 260 249 239 247 260 278 272 273 287 291 289 285 277 269 273 278 281 266 273 277 275 272 285 290 282 275 269 267 253 244 248 247 262 278 292
293 300 305 308 287 285 281 275 269 263 256 242 254 268 272 287 291 305 317 296 268 262 277 280 264 257 262 300 325 315 309 265 308 332 287 347 347 6 3 5 355 341 338 326
292 298 305 305 298 288 272 246 202 219 242 257 266 284 299 300 313 320 313 294 282 269 264 294 265 235 180 356 339 344 335 339 345 350 354 357 358 351 345 338 326 318 321 309
297 301 304 304 283 231 213 206 202 211 218 227 174 25 320 329 328 325 309 301 285 270 330 322 321 327 333 342 343 345 352 351 345 340 339 335 330 328 325 321 314 310 305 302
290 302 315 291 250 214 216 198 212 249 324 315 326 313 319 323 309 291 278 270 270 294 302 286 302 310 328 325 314 320 326 321 318 318 312 309 313 314 313 310 308 304 302 303
281 299 275 269 232 225 204 200 270 303 319 315 316 312 312 308 298 283 268 272 275 261 278 296 308 301 304 298 299 308 310 306 299 300 301 303 307 308 306 305 303 303 304 303
270 268 248 243 236 264 301 308 322 310 306 302 301 298 290 296 282 257 252 252 254 269 283 298 304 311 308 313 307 299 306 306 303 303 304 305 304 302 301 302 303 302 302 300
258 236 230 244 283 287 284 284 284 285 289 296 291 300 289 274 234 237 243 259 275 291 301 301 305 299 298 297 296 298 303 305 304 304 304 303 303 303 302 302 301 298 294 295
250 259 274 282 293 294 280 281 290 286 285 283 287 273 270 276 265 271 277 279 302 291 305 298 293 296 301 302 302 303 305 306 306 305 303 301 302 302 300 297 294 295 295 293
Height
3147 3146 3145 3143 3142 3141 3139 3138 3137 3136 3135 3136 3133 3132 3132 3132 3132 3132 3132 3132 3132 3132 3132 3132 3132 3132 3132 3131 3131 3131 3131 3130 3130 3129 3128 3127 3127 3127 3128 3129 3127 3124 3122 3109
3146 3146 3145 3144 3144 3142 3140 3139 3139 3137 3136 3135 3134 3132 3133 3133 3133 3133 3132 3131 3131 3131 3130 3131 3129 3128 3128 3128 3129 3129 3129 3128 3128 3126 3127 3124 3122 3122 3122 3123 3123 3118 3120 3106
3147 3146 3145 3144 3143 3142 3142 3141 3140 3139 3138 3137 3136 3134 3133 3132 3131 3131 3131 3131 3130 3129 3129 3128 3127 3127 3127 3126 3126 3126 3126 3125 3125 3123 3121 3120 3118 3117 3117 3117 3115 3108 3100 3098
3145 3145 3144 3143 3142 3141 3141 3140 3139 3139 3138 3137 3136 3136 3134 3132 3131 3130 3128 3128 3128 3129 3128 3126 3125 3124 3123 3123 3123 3123 3123 3120 3118 3117 3116 3113 3112 3110 3109 3106 3103 3101 3090 3089
3141 3140 3140 3141 3140 3139 3139 3138 3137 3136 3136 3135 3134 3133 3133 3132 3130 3129 3127 3126 3125 3125 3125 3125 3123 3123 3122 3121 3120 3119 3118 3115 3112 3109 3108 3105 3102 3099 3097 3094 3091 3086 3084 3080
3136 3136 3135 3135 3135 3135 3135 3134 3133 3133 3132 3131 3131 3130 3129 3128 3127 3125 3124 3123 3122 3121 3121 3119 3118 3117 3117 3116 3115 3115 3114 3112 3110 3105 3102 3099 3094 3086 3084 3081 3079 3079 3077 3076
3130 3130 3129 3129 3129 3129 3129 3129 3129 3128 3127 3127 3127 3126 3125 3124 3122 3121 3120 3118 3117 3118 3116 3114 3112 3110 3109 3108 3107 3107 3105 3106 3105 3098 3099 3091 3078 3077 3074 3071 3071 3070 3069 3070
3123 3122 3123 3123 3123 3122 3122 3122 3123 3122 3121 3121 3120 3119 3118 3117 3115 3114 3113 3111 3111 3111 3110 3110 3107 3104 3101 3096 3096 3096 3096 3097 3099 3097 3090 3074 3075 3073 3071 3066 3060 3066 3060 3063
3116 3116 3115 3115 3116 3116 3116 3115 3114 3114 3113 3114 3114 3112 3110 3108 3107 3107 3106 3105 3104 3104 3103 3102 3099 3098 3095 3091 3088 3087 3086 3088 3091 3087 3084 3068 3065 3066 3063 3061 3047 3058 3055 3054
3108 3108 3107 3106 3106 3106 3107 3106 3105 3104 3102 3102 3103 3103 3102 3100 3099 3098 3098 3097 3097 3097 3095 3094 3093 3089 3088 3084 3081 3081 3079 3077 3074 3078 3072 3054 3059 3060 3058 3058 3050 3047 3048 3047
3096 3096 3097 3096 3096 3095 3095 3095 3093 3093 3089 3092 3091 3092 3092 3090 3091 3091 3090 3091 3089 3088 3086 3086 3083 3078 3076 3072 3070 3071 3071 3071 3067 3068 3065 3053 3052 3051 3053 3050 3046 3043 3041 3040
3083 3083 3083 3083 3084 3083 3082 3085 3082 3080 3079 3081 3081 3082 3081 3079 3081 3080 3076 3080 3081 3080 3079 3076 3073 3069 3065 3064 3060 3062 3059 3060 3060 3055 3047 3048 3047 3045 3044 3042 3039 3035 3033 3031
3073 3073 3073 3073 3074 3073 3073 3073 3074 3072 3068 3068 3069 3071 3070 3068 3069 3068 3068 3069 3073 3069 3070 3067 3065 3060 3059 3056 3049 3050 3048 3051 3046 3049 3037 3040 3040 3037 3035 3034 3030 3025 3022 3019
3065 3065 3064 3065 3064 3065 3066 3065 3065 3064 3062 3055 3057 3060 3061 3060 3060 3060 3059 3059 3060 3059 3058 3053 3050 3049 3046 3042 3041 3036 3044 3040 3038 3029 3030 3032 3029 3027 3024 3020 3018 3013 3010 3007
3056 3056 3055 3055 3055 3055 3056 3056 3057 3056 3058 3050 3044 3050 3055 3052 3050 3050 3050 3049 3048 3048 3045 3041 3038 3035 3037 3031 3029 3015 3030 3026 3024 3016 3021 3019 3012 3012 3008 3005 3003 3001 2998 2996
3047 3047 3046 3045 3046 3046 3047 3046 3047 3046 3047 3044 3036 3033 3037 3040 3039 3040 3038 3038 3038 3037 3034 3029 3026 3028 3029 3021 3012 3015 3017 3017 3013 3008 3006 3003 3000 2998 2994 2991 2989 2986 2983 2979
3038 3037 3037 3036 3036 3037 3039 3039 3035 3036 3037 3036 3031 3027 3028 3027 3028 3029 3031 3030 3028 3028 3023 3019 3019 3019 3021 3010 3004 3008 3007 3005 3002 2998 2993 2988 2989 2983 2981 2978 2973 2971 2968 2966
3029 3028 3027 3026 3026 3027 3028 3026 3026 3027 3029 3030 3027 3021 3022 3023 3021 3021 3020 3020 3020 3016 3015 3012 3010 3010 3007 3000 3000 2995 2992 2991 2987 2984 2981 2978 2974 2972 2967 2964 2961 2959 2957 2956
3022 3022 3020 3018 3018 3018 3018 3018 3018 3019 3024 3021 3018 3016 3017 3013 3014 3015 3013 3012 3010 3009 3006 3005 3005 3000 2999 2988 2987 2984 2982 2981 2976 2971 2970 2967 2963 2960 2957 2954 2952 2951 2950 2949
3018 3017 3016 3013 3013 3012 3014 3012 3013 3012 3012 3012 3010 3012 3012 3012 3009 3008 3009 3005 3003 2999 3000 2997 2994 2993 2985 2981 2980 2979 2975 2972 2968 2966 2964 2962 2960 2959 2955 2952 2951 2952 2948 2947
3013 3011 3012 3011 3009 3008 3007 3008 3008 3010 3009 3008 3007 3008 3007 3006 3005 3004 3003 3001 2999 2994 2994 2991 2988 2984 2979 2978 2977 2975 2973 2970 2967 2964 2963 2959 2957 2956 2954 2953 2952 2950 2945 2942
3010 3009 3007 3006 3006 3005 3004 3004 3006 3006 3006 3006 3004 3004 3002 3002 3002 3000 3001 2998 2996 2988 2985 2988 2982 2981 2977 2977 2974 2972 2969 2967 2964 2960 2959 2956 2953 2951 2949 2947 2944 2941 2937 2934
3006 3007 3003 3002 3003 3001 3002 3002 3002 3002 3001 3000 2999 2999 3000 2999 2999 2998 2997 2994 2991 2987 2985 2983 2980 2976 2976 2973 2971 2969 2966 2963 2960 2957 2955 2952 2948 2945 2942 2938 2936 2931 2927 2924
3005 3003 3003 3002 2999 2998 2999 3000 3000 3000 3000 2998 2995 2996 2997 2995 2993 2993 2990 2989 2987 2983 2981 2979 2976 2972 2970 2969 2967 2963 2959 2957 2954 2951 2948 2945 2941 2936 2933 2930 2925 2920 2915 2911
3002 3001 2998 2997 2999 2999 2998 2997 2996 2997 2997 2994 2992 2992 2992 2990 2989 2987 2985 2982 2978 2976 2975 2975 2971 2967 2963 2961 2958 2955 2951 2948 2945 2942 2938 2934 2930 2926 2922 2919 2914 2909 2903 2898
2996 2997 2996 2996 2996 2996 2996 2994 2993 2993 2991 2989 2989 2987 2985 2983 2982 2979 2977 2975 2973 2972 2970 2967 2963 2959 2956 2952 2948 2945 2942 2938 2934 2931 2927 2922 2919 2914 2909 2906 2902 2897 2891 2887
2991 2991 2992 2992 2991 2992 2991 2989 2989 2987 2986 2985 2984 2984 2982 2980 2976 2973 2972 2970 2969 2965 2961 2957 2953 2950 2946 2943 2939 2935 2931 2927 2923 2919 2915 2910 2906 2901 2896 2891 2889 2885 2881 2877